Regional Weather Roundup
Issued by NWS State College, PA

Home | Current Version | Previous Version | Text Only | Print | Product List | Glossary On
Versions: 1 2 3 4 5 6 7 8 9 10 11 12 13 14 15 16 17 18 19 20 21 22 23 24 25 26 27 28 29 30 31 32 33 34 35 36 37 38 39 40 41 42 43 44 45 46 47 48 49 50
000
ASUS41 KCTP 290110
RWRCTP

REGIONAL WEATHER ROUNDUP
NATIONAL WEATHER SERVICE STATE COLLEGE PA
900 PM EDT THU AUG 28 2014

Note: "fair" indicates few or no clouds below 12,000 feet with no
significant weather and/or obstructions to visibility.

* = STATION THAT DOES NOT REPORT PRECIPITATION /E.G. RAIN...SNOW...ETC/
    THUNDER OR FOG.

PAZ002>004-007>009-013>016-020>023-029>032-290200-
WESTERN PENNSYLVANIA

CITY           SKY/WX    TMP DP  RH WIND       PRES   REMARKS
ERIE           CLEAR     62  52  69 CALM      30.13R
MEADVILLE      CLEAR     59  49  69 CALM      30.15R
FRANKLIN*      CLEAR     57  46  67 N3        30.16R
NEW CASTLE     FAIR      61  53  74 CALM      30.15R
BEAVER COUNTY  CLEAR     63  52  67 N5        30.13R
BUTLER*        CLEAR     63  48  59 N5        30.14R
PITTSBURGH INT PTCLDY    67  50  54 N7        30.12R
PITTSBURGH     CLEAR     64  51  62 N5        30.11R
INDIANA*       CLEAR     61  54  77 CALM      30.17R
LATROBE        PTCLDY    63  55  77 CALM      30.13R
WASHINGTON CO* CLEAR     57  54  88 CALM      30.13R
$$

PAZ004>006-010>012-017>019-024>028-033>037-041-042-045-046-049>053-290200-
CENTRAL PENNSYLVANIA

CITY           SKY/WX    TMP DP  RH WIND       PRES   REMARKS
BRADFORD       CLEAR     53  47  79 CALM      30.15R
DUBOIS         CLEAR     59  49  69 N6        30.13R
CLEARFIELD     CLEAR     58  51  78 N7        30.13R
JOHNSTOWN      CLEAR     60  48  64 NW5       30.14R
ALTOONA        CLEAR     62  52  69 CALM      30.12R
STATE COLLEGE  CLEAR     64  50  59 VRB6      30.10R
WILLIAMSPORT   CLEAR     65  49  56 CALM      30.09R
SELINSGROVE    CLEAR     61  55  81 N5        30.08R
FT INDIANTOWN  CLEAR     68  52  55 VRB5      30.07R
CAPITAL CITY   CLEAR     65  55  70 W5        30.06R
HARRISBURG     PTCLDY    69  56  62 NW3       30.04R
YORK           CLEAR     59  55  87 CALM      30.06R
$$

PAZ038>040-043-044-047-048-054-055-060>062-067>071-290200-
EASTERN PENNSYLVANIA

CITY           SKY/WX    TMP DP  RH WIND       PRES   REMARKS
SCRANTON       CLEAR     62  46  55 N5        30.10R
MOUNT POCONO   CLEAR     58  45  62 NW7       30.10R
ALLENTOWN      CLEAR     65  50  58 N6        30.05R
QUAKERTOWN*    CLEAR     68  50  52 MISG      30.06R
READING        CLEAR     67  54  63 N7        30.05R
LANCASTER      PTCLDY    64  54  69 N3        30.05R
COATESVILLE    CLEAR     64  54  68 NW5       30.06R
POTTSTOWN      CLEAR     67  52  58 N5        30.06R
BLUE BELL      CLEAR     63  55  77 CALM      30.03R
DOYLESTOWN     CLEAR     67  51  56 N6        30.04R
WILLOW GROVE   NOT AVBL
NORTH PHILA    CLEAR     72  48  42 N5        30.04R
PHILADELPHIA   CLEAR     75  52  44 NW8       30.03R
$$


USA.gov is the U.S. government's official web portal to all federal, state and local government web resources and services.